Voltar ao catálogo

CHUBUSAT 2

AtivoRádio AmadorVLEO
NORAD 41338·PAYLOAD·🇯🇵 Japan

Lançado Feb 17, 2016 de Tanegashima Space Center

Loading…

Próximas Passagens (próximas 24 horas)

TLE

AtualizadoSource: Space-Track

Época: Sep 14, 2026, 15:18 UTC

1 41338U 16012B   26257.63817060  .00004576  00000-0  19226-3 0  9997
2 41338  30.9966  93.9990 0008610 276.1789  83.7871 15.21665836582055

Acompanhe CHUBUSAT 2 em tempo real com AllMySat

Download on the App Store